STARLINK-37193, 68390

Orbit data source: Space-Track

STARLINK-37193, 68390 is a payload satellite owned by SpaceX/Seattle (US) in SSO that was launched on Thu, 26 Mar 2026 UTC via an FALCON 9 launch vehicle from the Air Force Western Test Range (AFWTR). Payload-class satellites include a variety of spacecraft equipped with specific instruments for various scientific and technological missions. These include communications satellites like Starlink; space stations such as the ISS; scientific satellites like the Hubble; Earth observation satellites from companies like Planet Labs, Umbra, and HawkEye 360; GPS; miniature CubeSats for education and research; and military/defense satellites.

Not visible in the next 10 days
Identifier
68390, 2026-063L
Orbit
SSO
Country
Flag of USUS
Related business
Manufacturer
SpaceX/Seattle
Mission
Operational spacecraft
Bus & Motor
STARLINK V2MO, Unknown motor
Mass
575 kg wet, ~530 kg dry
Launch date (UTC)
2026-03-26 (1 week ago)
Launch vehicle
FALCON 9
Launch site
Air Force Western Test Range (AFWTR)
Object type
Payload
Rocket body
Debris
Shape & HBR
Unknown shape, 17.7 m
Radar Cross Section
RCS unknown

Expand to show TLE details & history
Last TLE update: 15 hours ago

TLE from 15 hours ago
0 STARLINK-37193
1 68390U 26063L   26095.09092345  .00948776  49540-3  12560-2 0  9999
2 68390  97.2818 236.1140 0001196 324.7874  35.3329 16.06884715  1790
Epoch: 2026-04-05T02:10Z
TLE epoch observation values (Epoch: 2026-04-05T02:10:55.786Z)
Latitude
0.00001°
Longitude
9.98023°
Altitude
257.967 km
Speed
7.753 km/s
True Right ascension
15h 44m 27s
True Declination
0° 00' 00"
Sunlit
Object was in full shadow at epoch
Visualization orbit readout
Latitude
Unknown
Longitude
Unknown
Altitude
Unknown
Speed
Unknown
Apparent Right ascension
Unknown
Apparent Declination
Unknown
Sunlit
N/A
Visualization observer readout
Local Sidereal Time
23:11:03
Azimuth
Unknown
Elevation
Unknown
Doppler factor
Unknown
Orbital elements
Apogee altitude
253.042 km
Perigee altitude
251.456 km
Semi-major axis
6,630.386 km
Eccentricity
0.00012
Inclination
97.2818°
RAAN
236.114°
Arg. of periapsis
324.7874°
True anomaly
35.34083°
Mean anomaly
35.3329°
Eccentric anomaly
35.33686°
Mean motion
4.02008 °/min
Orbital period
89.55 mins
BSTAR
0.001256
Loading maneuver chart data...
Computing Atmospheric mass density...
Loading historical data...
Loading historical data...
Loading historical data...
Loading historical data...
Loading historical data...
Loading historical data...
Loading historical data...

Documentation

Showing up to 5 results
|